| time (UTC) | temp F | wind direction | speed knots | gust knots | rain 1hr in | rain 24hr in | rain mn in | humidity % | barometer mb |
| 20260507150142 | 83 | 68 | 5.2 | 11.3 | 0.00 | 0.00 | 0.00 | 70 | 999.4 |
| 20260507145631 | 82 | 135 | 5.2 | 12.2 | 0.00 | 0.00 | 0.00 | 71 | 999.5 |
| 20260507144611 | 83 | 90 | 3.5 | 11.3 | 0.00 | 0.00 | 0.00 | 70 | 1000.2 |
| 20260507144101 | 83 | 113 | 4.3 | 11.3 | 0.00 | 0.00 | 0.00 | 71 | 1000.0 |
| 20260507143551 | 83 | 68 | 3.5 | 9.6 | 0.00 | 0.00 | 0.00 | 71 | 1000.3 |
| 20260507143042 | 82 | 45 | 5.2 | 7.8 | 0.00 | 0.00 | 0.00 | 71 | 1000.5 |
| 20260507142532 | 82 | 135 | 4.3 | 11.3 | 0.00 | 0.00 | 0.00 | 71 | 1000.2 |
| 20260507142021 | 82 | 90 | 2.6 | 11.3 | 0.00 | 0.00 | 0.00 | 72 | 1000.1 |
| 20260507141511 | 82 | 135 | 4.3 | 9.6 | 0.00 | 0.00 | 0.00 | 71 | 1000.3 |
| 20260507141000 | 82 | 113 | 2.6 | 11.3 | 0.00 | 0.00 | 0.00 | 73 | 1000.6 |
| 20260507140450 | 82 | 113 | 3.5 | 11.3 | 0.00 | 0.00 | 0.00 | 72 | 1000.8 |
| 20260507135940 | 82 | 113 | 6.1 | 11.3 | 0.00 | 0.00 | 0.00 | 72 | 1000.9 |
| 20260507135430 | 82 | 90 | 1.7 | 7.0 | 0.00 | 0.00 | 0.00 | 73 | 1001.0 |
| 20260507134920 | 81 | 68 | 3.5 | 7.0 | 0.00 | 0.00 | 0.00 | 73 | 1001.2 |
| 20260507134410 | 81 | 90 | 1.7 | 9.6 | 0.00 | 0.00 | 0.00 | 74 | 1001.2 |
| 20260507133900 | 81 | 113 | 1.7 | 9.6 | 0.00 | 0.00 | 0.00 | 73 | 1001.2 |
| 20260507132841 | 80 | 90 | 3.5 | 9.6 | 0.00 | 0.00 | 0.00 | 74 | 1001.1 |
| 20260507132330 | 80 | 135 | 3.5 | 9.6 | 0.00 | 0.00 | 0.00 | 74 | 1001.2 |
| 20260507131820 | 80 | 113 | 4.3 | 9.6 | 0.00 | 0.00 | 0.00 | 74 | 1001.1 |
| 20260507131310 | 80 | 113 | 4.3 | 7.8 | 0.00 | 0.00 | 0.00 | 73 | 1001.4 |
| 20260507130800 | 80 | 113 | 3.5 | 7.8 | 0.00 | 0.00 | 0.00 | 74 | 1001.2 |
| 20260507130249 | 80 | 68 | 2.6 | 9.6 | 0.00 | 0.00 | 0.00 | 74 | 1001.2 |
| 20260507125739 | 80 | 68 | 3.5 | 9.6 | 0.00 | 0.00 | 0.00 | 73 | 1001.2 |
| 20260507125229 | 80 | 113 | 3.5 | 13.0 | 0.00 | 0.00 | 0.00 | 73 | 1000.8 |
| 20260507124719 | 80 | 45 | 3.5 | 13.0 | 0.00 | 0.00 | 0.00 | 73 | 1000.7 |
| 20260507124208 | 80 | 90 | 5.2 | 11.3 | 0.00 | 0.00 | 0.00 | 73 | 1000.7 |
| 20260507123148 | 80 | 90 | 3.5 | 9.6 | 0.00 | 0.00 | 0.00 | 74 | 1000.8 |
| 20260507122638 | 80 | 90 | 3.5 | 9.6 | 0.00 | 0.00 | 0.00 | 74 | 1000.4 |
| 20260507122128 | 80 | 45 | 3.5 | 9.6 | 0.00 | 0.00 | 0.00 | 74 | 1000.4 |
| 20260507121618 | 80 | 135 | 1.7 | 9.6 | 0.00 | 0.00 | 0.00 | 74 | 1000.2 |
| 20260507121108 | 79 | 113 | 2.6 | 13.0 | 0.00 | 0.00 | 0.00 | 74 | 1000.2 |
| 20260507120558 | 79 | 135 | 7.8 | 13.0 | 0.00 | 0.00 | 0.00 | 74 | 1000.2 |
| 20260507120048 | 79 | 68 | 4.3 | 11.3 | 0.00 | 0.00 | 0.00 | 74 | 1000.1 |
| 20260507115537 | 79 | 113 | 3.5 | 9.6 | 0.00 | 0.00 | 0.00 | 74 | 1000.1 |
| 20260507115027 | 79 | 90 | 5.2 | 9.6 | 0.00 | 0.00 | 0.00 | 74 | 1000.3 |
| 20260507114517 | 79 | 113 | 5.2 | 9.6 | 0.00 | 0.00 | 0.00 | 74 | 1000.5 |
| 20260507114008 | 79 | 90 | 5.2 | 9.6 | 0.00 | 0.00 | 0.00 | 74 | 1000.0 |
| 20260507113456 | 79 | 113 | 3.5 | 13.0 | 0.00 | 0.00 | 0.00 | 75 | 1000.1 |
| 20260507112947 | 79 | 113 | 4.3 | 13.0 | 0.00 | 0.00 | 0.00 | 74 | 1000.2 |
| 20260507111928 | 79 | 135 | 4.3 | 7.8 | 0.00 | 0.00 | 0.00 | 74 | 1000.3 |
| 20260507111417 | 78 | 113 | 3.5 | 7.0 | 0.00 | 0.00 | 0.00 | 75 | 1000.3 |
| 20260507110906 | 79 | 113 | 2.6 | 7.8 | 0.00 | 0.00 | 0.00 | 75 | 1000.4 |
| 20260507105846 | 78 | 90 | 2.6 | 6.1 | 0.00 | 0.00 | 0.00 | 75 | 1000.2 |
| 20260507104826 | 79 | 113 | 1.7 | 7.8 | 0.00 | 0.00 | 0.00 | 75 | 1000.2 |
| 20260507104316 | 79 | 113 | 2.6 | 9.6 | 0.00 | 0.00 | 0.00 | 75 | 1000.2 |
| 20260507103806 | 79 | 180 | 6.1 | 9.6 | 0.00 | 0.00 | 0.00 | 74 | 1000.2 |
| 20260507103256 | 79 | 90 | 3.5 | 9.6 | 0.00 | 0.00 | 0.00 | 74 | 999.9 |
| 20260507102746 | 79 | 113 | 3.5 | 9.6 | 0.00 | 0.00 | 0.00 | 74 | 1000.0 |
| 20260507102236 | 79 | 68 | 3.5 | 9.6 | 0.00 | 0.00 | 0.00 | 73 | 999.8 |
| 20260507101726 | 79 | 113 | 3.5 | 9.6 | 0.00 | 0.00 | 0.00 | 74 | 999.9 |
| 20260507101215 | 79 | 113 | 5.2 | 9.6 | 0.00 | 0.00 | 0.00 | 73 | 999.8 |
| 20260507100705 | 79 | 113 | 3.5 | 7.8 | 0.00 | 0.00 | 0.00 | 73 | 999.9 |
| 20260507100155 | 79 | 23 | 4.3 | 7.8 | 0.00 | 0.00 | 0.00 | 74 | 1000.1 |
| 20260507095645 | 79 | 23 | 3.5 | 9.6 | 0.00 | 0.00 | 0.00 | 73 | 1000.1 |
| 20260507095135 | 79 | 113 | 2.6 | 9.6 | 0.00 | 0.00 | 0.00 | 73 | 1000.0 |
| 20260507094114 | 79 | 135 | 3.5 | 6.1 | 0.00 | 0.00 | 0.00 | 74 | 1000.1 |
| 20260507093605 | 79 | 90 | 2.6 | 7.0 | 0.00 | 0.00 | 0.00 | 73 | 1000.0 |
| 20260507093054 | 79 | 90 | 3.5 | 7.8 | 0.00 | 0.00 | 0.00 | 73 | 999.9 |
| 20260507092544 | 79 | 68 | 4.3 | 9.6 | 0.00 | 0.00 | 0.00 | 74 | 999.9 |
| 20260507092035 | 79 | 203 | 5.2 | 9.6 | 0.00 | 0.00 | 0.00 | 74 | 999.8 |
| 20260507091525 | 79 | 90 | 3.5 | 7.8 | 0.00 | 0.00 | 0.00 | 74 | 999.9 |
| 20260507091014 | 79 | 113 | 2.6 | 7.8 | 0.00 | 0.00 | 0.00 | 74 | 999.9 |
| 20260507085954 | 79 | 90 | 3.5 | 7.0 | 0.00 | 0.00 | 0.00 | 73 | 1000.3 |
| 20260507085443 | 79 | 68 | 2.6 | 6.1 | 0.00 | 0.00 | 0.00 | 74 | 1000.4 |
| 20260507084423 | 79 | 90 | 3.5 | 7.0 | 0.00 | 0.00 | 0.00 | 74 | 1000.4 |
| 20260507083913 | 79 | 113 | 3.5 | 7.0 | 0.00 | 0.00 | 0.00 | 74 | 1000.4 |
| 20260507083402 | 79 | 90 | 3.5 | 7.8 | 0.00 | 0.00 | 0.00 | 74 | 1000.5 |
| 20260507082853 | 79 | 113 | 3.5 | 7.8 | 0.00 | 0.00 | 0.00 | 74 | 1000.4 |
| 20260507081832 | 79 | 90 | 4.3 | 9.6 | 0.00 | 0.00 | 0.00 | 74 | 1000.4 |
| 20260507081323 | 79 | 113 | 3.5 | 9.6 | 0.00 | 0.00 | 0.00 | 74 | 1000.4 |
| 20260507080812 | 79 | 68 | 1.7 | 7.0 | 0.00 | 0.00 | 0.00 | 74 | 1000.5 |
| 20260507075753 | 79 | 113 | 3.5 | 9.6 | 0.00 | 0.00 | 0.00 | 75 | 1000.3 |
| 20260507075243 | 79 | 135 | 4.3 | 9.6 | 0.00 | 0.00 | 0.00 | 74 | 1000.4 |
| 20260507074732 | 79 | 113 | 1.7 | 6.1 | 0.00 | 0.00 | 0.00 | 75 | 1000.5 |
| 20260507074222 | 79 | 113 | 3.5 | 6.1 | 0.00 | 0.00 | 0.00 | 75 | 1000.6 |
| 20260507072651 | 78 | 68 | 1.7 | 7.8 | 0.00 | 0.00 | 0.00 | 76 | 1000.5 |
| 20260507072141 | 78 | 135 | 3.5 | 7.8 | 0.00 | 0.00 | 0.00 | 76 | 1000.5 |
| 20260507071631 | 78 | 113 | 2.6 | 7.8 | 0.00 | 0.00 | 0.00 | 76 | 1000.5 |
| 20260507071121 | 78 | 135 | 2.6 | 7.8 | 0.00 | 0.00 | 0.00 | 76 | 1000.7 |
| 20260507070612 | 78 | 113 | 2.6 | 7.0 | 0.00 | 0.00 | 0.00 | 76 | 1000.5 |
| 20260507065551 | 78 | 135 | 2.6 | 7.0 | 0.00 | 0.00 | 0.00 | 77 | 1001.0 |
| 20260507065041 | 78 | 113 | 1.7 | 7.8 | 0.00 | 0.00 | 0.00 | 76 | 1000.9 |
| 20260507064530 | 78 | 135 | 3.5 | 7.8 | 0.00 | 0.00 | 0.00 | 76 | 1001.2 |
| 20260507064020 | 78 | 113 | 3.5 | 7.0 | 0.00 | 0.00 | 0.00 | 76 | 1000.9 |
| 20260507063510 | 78 | 90 | 2.6 | 7.0 | 0.00 | 0.00 | 0.00 | 76 | 1001.0 |
| 20260507061430 | 78 | 90 | 0.9 | 7.0 | 0.00 | 0.00 | 0.00 | 76 | 1001.1 |
| 20260507060920 | 78 | 158 | 3.5 | 6.1 | 0.00 | 0.00 | 0.00 | 76 | 1001.4 |
| 20260507060411 | 79 | 113 | 4.3 | 0.0 | 0.00 | 0.00 | 0.00 | 76 | 1001.4 |
| 20260507060155 | 79 | 113 | 4.3 | 0.0 | 0.00 | 0.00 | 0.00 | 76 | 1001.4 |
| 20260507055821 | 79 | 90 | 3.5 | 7.8 | 0.00 | 0.00 | 0.00 | 76 | 1001.5 |
| 20260507055310 | 78 | 68 | 3.5 | 7.8 | 0.00 | 0.00 | 0.00 | 76 | 1001.3 |
| 20260507054801 | 78 | 90 | 1.7 | 6.1 | 0.00 | 0.00 | 0.00 | 77 | 1001.5 |
| 20260507054250 | 78 | 90 | 3.5 | 7.0 | 0.00 | 0.00 | 0.00 | 77 | 1001.5 |
| 20260507053230 | 78 | 68 | 3.5 | 7.0 | 0.00 | 0.00 | 0.00 | 77 | 1001.7 |
| 20260507052719 | 78 | 90 | 3.5 | 7.0 | 0.00 | 0.00 | 0.00 | 77 | 1001.5 |
| 20260507051700 | 79 | 113 | 1.7 | 6.1 | 0.00 | 0.00 | 0.00 | 77 | 1001.8 |
| 20260507051150 | 79 | 113 | 1.7 | 6.1 | 0.00 | 0.00 | 0.00 | 77 | 1002.1 |
| 20260507050641 | 79 | 68 | 1.7 | 7.0 | 0.00 | 0.00 | 0.00 | 77 | 1001.8 |
| 20260507050130 | 79 | 135 | 2.6 | 7.0 | 0.00 | 0.00 | 0.00 | 76 | 1002.0 |
| 20260507045619 | 79 | 113 | 1.7 | 7.0 | 0.00 | 0.00 | 0.00 | 77 | 1002.1 |
| 20260507045110 | 79 | 135 | 2.6 | 6.1 | 0.00 | 0.00 | 0.00 | 77 | 1002.1 |
| 20260507044051 | 79 | 113 | 3.5 | 7.0 | 0.00 | 0.00 | 0.00 | 76 | 1002.2 |
| 20260507043539 | 79 | 113 | 1.7 | 7.0 | 0.00 | 0.00 | 0.00 | 76 | 1002.2 |
| 20260507043029 | 79 | 90 | 1.7 | 7.0 | 0.00 | 0.00 | 0.00 | 76 | 1002.3 |
| 20260507042518 | 79 | 113 | 1.7 | 7.0 | 0.00 | 0.00 | 0.00 | 76 | 1002.0 |
| 20260507042009 | 80 | 135 | 1.7 | 6.1 | 0.00 | 0.00 | 0.00 | 76 | 1002.0 |
| 20260507041459 | 80 | 113 | 3.5 | 7.8 | 0.00 | 0.00 | 0.00 | 75 | 1002.1 |
| 20260507040948 | 80 | 113 | 3.5 | 7.8 | 0.00 | 0.00 | 0.00 | 76 | 1002.1 |
| 20260507040439 | 80 | 113 | 1.7 | 7.0 | 0.00 | 0.00 | 0.00 | 76 | 1002.4 |
| 20260507035928 | 80 | 135 | 3.5 | 7.8 | 0.00 | 0.00 | 0.00 | 75 | 1002.5 |
| 20260507035418 | 80 | 113 | 3.5 | 7.8 | 0.00 | 0.00 | 0.00 | 75 | 1002.4 |
| 20260507034909 | 80 | 135 | 1.7 | 5.2 | 0.00 | 0.00 | 0.00 | 76 | 1002.3 |
| 20260507034358 | 80 | 135 | 1.7 | 6.1 | 0.00 | 0.00 | 0.00 | 76 | 1002.5 |
| 20260507033847 | 80 | 90 | 1.7 | 6.1 | 0.00 | 0.00 | 0.00 | 76 | 1002.4 |
| 20260507033341 | 80 | 113 | 3.5 | 6.1 | 0.00 | 0.00 | 0.00 | 76 | 1002.3 |
| 20260507032318 | 80 | 90 | 2.6 | 5.2 | 0.00 | 0.00 | 0.00 | 75 | 1002.4 |
| 20260507031807 | 80 | 90 | 2.6 | 5.2 | 0.00 | 0.00 | 0.00 | 75 | 1002.4 |
| 20260507031257 | 80 | 68 | 2.6 | 7.0 | 0.00 | 0.00 | 0.00 | 75 | 1002.5 |
| 20260507030747 | 80 | 90 | 2.6 | 7.0 | 0.00 | 0.00 | 0.00 | 75 | 1002.6 |
| 20260507030238 | 81 | 158 | 1.7 | 6.1 | 0.00 | 0.00 | 0.00 | 74 | 1002.7 |
| 20260507025726 | 81 | 90 | 1.7 | 6.1 | 0.00 | 0.00 | 0.00 | 74 | 1002.6 |
| 20260507024706 | 81 | 158 | 1.7 | 6.1 | 0.00 | 0.00 | 0.00 | 74 | 1002.9 |
| 20260507024157 | 81 | 113 | 1.7 | 7.0 | 0.00 | 0.00 | 0.00 | 74 | 1002.8 |
| 20260507023137 | 82 | 113 | 1.7 | 6.1 | 0.00 | 0.00 | 0.00 | 73 | 1003.0 |
| 20260507022116 | 82 | 90 | 2.6 | 7.0 | 0.00 | 0.00 | 0.00 | 72 | 1003.0 |
| 20260507021606 | 82 | 113 | 1.7 | 6.1 | 0.00 | 0.00 | 0.00 | 73 | 1002.8 |
| 20260507021055 | 82 | 90 | 3.5 | 6.1 | 0.00 | 0.00 | 0.00 | 72 | 1002.7 |
| 20260507020546 | 82 | 45 | 1.7 | 5.2 | 0.00 | 0.00 | 0.00 | 72 | 1003.2 |
| 20260507020036 | 82 | 113 | 3.5 | 5.2 | 0.00 | 0.00 | 0.00 | 73 | 1002.9 |
| 20260507015015 | 81 | 90 | 0.9 | 3.5 | 0.00 | 0.00 | 0.00 | 74 | 1003.1 |
| 20260507013445 | 82 | 68 | 1.7 | 6.1 | 0.00 | 0.00 | 0.00 | 73 | 1003.2 |
| 20260507011915 | 81 | 113 | 1.7 | 5.2 | 0.00 | 0.00 | 0.00 | 75 | 1003.2 |
| 20260507010855 | 80 | 90 | 1.7 | 3.5 | 0.00 | 0.00 | 0.00 | 77 | 1003.0 |
| 20260507010344 | 80 | 90 | 1.7 | 3.5 | 0.00 | 0.00 | 0.00 | 77 | 1003.1 |
| 20260507005835 | 80 | 113 | 1.7 | 3.5 | 0.00 | 0.00 | 0.00 | 77 | 1003.1 |
| 20260507005324 | 80 | 113 | 0.9 | 3.5 | 0.00 | 0.00 | 0.00 | 77 | 1003.4 |
| 20260507004814 | 81 | 113 | 1.7 | 3.5 | 0.00 | 0.00 | 0.00 | 76 | 1003.3 |
| 20260507004304 | 81 | 135 | 1.7 | 3.5 | 0.00 | 0.00 | 0.00 | 76 | 1003.4 |
| 20260507003754 | 81 | 113 | 0.9 | 3.5 | 0.00 | 0.00 | 0.00 | 75 | 1003.1 |
| 20260507003243 | 81 | 90 | 1.7 | 5.2 | 0.00 | 0.00 | 0.00 | 75 | 1002.9 |
| 20260507002734 | 81 | 90 | 2.6 | 5.2 | 0.00 | 0.00 | 0.00 | 75 | 1003.1 |
| 20260507002223 | 81 | 113 | 0.9 | 6.1 | 0.00 | 0.00 | 0.00 | 75 | 1003.1 |
| 20260507001713 | 81 | 90 | 2.6 | 6.1 | 0.00 | 0.00 | 0.00 | 75 | 1003.0 |
| 20260507001203 | 81 | 90 | 1.7 | 6.1 | 0.00 | 0.00 | 0.00 | 75 | 1003.1 |
| 20260507000653 | 81 | 113 | 3.5 | 5.2 | 0.00 | 0.00 | 0.00 | 75 | 1003.0 |
| 20260506235633 | 81 | 158 | 1.7 | 5.2 | 0.00 | 0.00 | 0.00 | 75 | 1003.3 |
| 20260506235125 | 81 | 90 | 2.6 | 3.5 | 0.00 | 0.00 | 0.00 | 75 | 1003.0 |
| 20260506234613 | 81 | 68 | 1.7 | 3.5 | 0.00 | 0.00 | 0.00 | 75 | 1003.3 |
| 20260506234103 | 81 | 90 | 1.7 | 5.2 | 0.00 | 0.00 | 0.00 | 75 | 1003.3 |
| 20260506233553 | 81 | 68 | 2.6 | 5.2 | 0.00 | 0.00 | 0.00 | 74 | 1003.4 |
| 20260506233042 | 81 | 113 | 2.6 | 6.1 | 0.00 | 0.00 | 0.00 | 74 | 1003.2 |
| 20260506232533 | 82 | 90 | 3.5 | 6.1 | 0.00 | 0.00 | 0.00 | 74 | 1003.4 |
| 20260506232022 | 82 | 90 | 1.7 | 5.2 | 0.00 | 0.00 | 0.00 | 74 | 1003.2 |
| 20260506231515 | 82 | 158 | 1.7 | 5.2 | 0.00 | 0.00 | 0.00 | 74 | 1003.1 |
| 20260506230452 | 82 | 90 | 1.7 | 7.8 | 0.00 | 0.00 | 0.00 | 74 | 1003.3 |
| 20260506225942 | 82 | 68 | 3.5 | 7.8 | 0.00 | 0.00 | 0.00 | 74 | 1003.0 |
| 20260506225431 | 82 | 90 | 1.7 | 6.1 | 0.00 | 0.00 | 0.00 | 75 | 1003.2 |
| 20260506224921 | 82 | 113 | 1.7 | 3.5 | 0.00 | 0.00 | 0.00 | 75 | 1003.2 |
| 20260506224412 | 82 | 113 | 1.7 | 6.1 | 0.00 | 0.00 | 0.00 | 75 | 1003.4 |
| 20260506223901 | 82 | 135 | 1.7 | 6.1 | 0.00 | 0.00 | 0.00 | 74 | 1003.3 |
| 20260506223351 | 82 | 135 | 2.6 | 5.2 | 0.00 | 0.00 | 0.00 | 74 | 1003.1 |
| 20260506222840 | 82 | 68 | 1.7 | 3.5 | 0.00 | 0.00 | 0.00 | 74 | 1003.4 |
| 20260506222330 | 82 | 113 | 1.7 | 3.5 | 0.00 | 0.00 | 0.00 | 75 | 1003.5 |
| 20260506221821 | 82 | 113 | 2.6 | 3.5 | 0.00 | 0.00 | 0.00 | 74 | 1003.5 |
| 20260506221311 | 82 | 158 | 1.7 | 3.5 | 0.00 | 0.00 | 0.00 | 74 | 1003.6 |
| 20260506220800 | 82 | 90 | 1.7 | 3.5 | 0.00 | 0.00 | 0.00 | 73 | 1003.4 |
| 20260506220251 | 82 | 113 | 0.9 | 5.2 | 0.00 | 0.00 | 0.00 | 73 | 1003.3 |
| 20260506215740 | 83 | 135 | 1.7 | 5.2 | 0.00 | 0.00 | 0.00 | 72 | 1003.2 |
| 20260506215230 | 83 | 158 | 1.7 | 5.2 | 0.00 | 0.00 | 0.00 | 72 | 1003.3 |
| 20260506214720 | 83 | 158 | 1.7 | 5.2 | 0.00 | 0.00 | 0.00 | 71 | 1003.4 |
| 20260506214210 | 83 | 113 | 1.7 | 3.5 | 0.00 | 0.00 | 0.00 | 71 | 1003.5 |
| 20260506213700 | 83 | 135 | 1.7 | 3.5 | 0.00 | 0.00 | 0.00 | 71 | 1003.6 |
| 20260506213150 | 83 | 113 | 0.9 | 3.5 | 0.00 | 0.00 | 0.00 | 72 | 1003.6 |
| 20260506212640 | 83 | 135 | 0.9 | 3.5 | 0.00 | 0.00 | 0.00 | 72 | 1003.2 |
| 20260506212129 | 83 | 135 | 1.7 | 6.1 | 0.00 | 0.00 | 0.00 | 71 | 1003.3 |
| 20260506211621 | 83 | 135 | 0.0 | 6.1 | 0.00 | 0.00 | 0.00 | 71 | 1003.2 |
| 20260506210559 | 84 | 135 | 1.7 | 6.1 | 0.00 | 0.00 | 0.00 | 70 | 1003.5 |
| 20260506210049 | 84 | 135 | 1.7 | 5.2 | 0.00 | 0.00 | 0.00 | 70 | 1003.5 |
| 20260506205538 | 84 | 113 | 1.7 | 5.2 | 0.00 | 0.00 | 0.00 | 70 | 1003.7 |
| 20260506204519 | 85 | 135 | 1.7 | 5.2 | 0.00 | 0.00 | 0.00 | 70 | 1003.6 |
| 20260506204009 | 85 | 135 | 1.7 | 5.2 | 0.00 | 0.00 | 0.00 | 70 | 1003.8 |
| 20260506203458 | 85 | 113 | 1.7 | 3.5 | 0.00 | 0.00 | 0.00 | 69 | 1003.8 |
| 20260506202949 | 85 | 113 | 1.7 | 5.2 | 0.00 | 0.00 | 0.00 | 69 | 1003.9 |
| 20260506202438 | 85 | 113 | 1.7 | 7.0 | 0.00 | 0.00 | 0.00 | 68 | 1003.9 |
| 20260506201928 | 86 | 90 | 3.5 | 7.0 | 0.00 | 0.00 | 0.00 | 67 | 1003.9 |
| 20260506200908 | 86 | 90 | 1.7 | 6.1 | 0.00 | 0.00 | 0.00 | 66 | 1003.7 |
| 20260506200358 | 87 | 158 | 2.6 | 5.2 | 0.00 | 0.00 | 0.00 | 66 | 1003.8 |
| 20260506195848 | 87 | 90 | 2.6 | 5.2 | 0.00 | 0.00 | 0.00 | 65 | 1003.8 |
| 20260506195337 | 87 | 90 | 2.6 | 5.2 | 0.00 | 0.00 | 0.00 | 64 | 1003.7 |
| 20260506194827 | 86 | 113 | 1.7 | 5.2 | 0.00 | 0.00 | 0.00 | 66 | 1003.9 |
| 20260506194317 | 87 | 68 | 1.7 | 6.1 | 0.00 | 0.00 | 0.00 | 64 | 1003.9 |
| 20260506193807 | 87 | 113 | 3.5 | 7.8 | 0.00 | 0.00 | 0.00 | 64 | 1004.1 |
| 20260506193257 | 87 | 68 | 3.5 | 7.8 | 0.00 | 0.00 | 0.00 | 65 | 1004.0 |
| 20260506192747 | 87 | 90 | 1.7 | 6.1 | 0.00 | 0.00 | 0.00 | 64 | 1004.4 |
| 20260506191726 | 87 | 90 | 2.6 | 7.0 | 0.00 | 0.00 | 0.00 | 63 | 1004.3 |
| 20260506191217 | 88 | 135 | 3.5 | 7.0 | 0.00 | 0.00 | 0.00 | 63 | 1004.3 |
| 20260506190707 | 88 | 68 | 3.5 | 7.0 | 0.00 | 0.00 | 0.00 | 63 | 1004.3 |
| 20260506190156 | 88 | 113 | 4.3 | 7.8 | 0.00 | 0.00 | 0.00 | 61 | 1004.6 |
| 20260506185646 | 88 | 90 | 3.5 | 7.8 | 0.00 | 0.00 | 0.00 | 62 | 1004.3 |
| 20260506185136 | 88 | 90 | 2.6 | 9.6 | 0.00 | 0.00 | 0.00 | 63 | 1004.7 |
| 20260506184626 | 88 | 113 | 6.1 | 9.6 | 0.00 | 0.00 | 0.00 | 61 | 1004.6 |
| 20260506184116 | 89 | 90 | 2.6 | 9.6 | 0.00 | 0.00 | 0.00 | 62 | 1004.5 |
| 20260506183605 | 89 | 113 | 2.6 | 7.8 | 0.00 | 0.00 | 0.00 | 60 | 1004.7 |
| 20260506183056 | 90 | 90 | 3.5 | 9.6 | 0.00 | 0.00 | 0.00 | 60 | 1004.6 |
| 20260506182546 | 91 | 68 | 3.5 | 9.6 | 0.00 | 0.00 | 0.00 | 58 | 1004.8 |
| 20260506182036 | 90 | 68 | 3.5 | 9.6 | 0.00 | 0.00 | 0.00 | 60 | 1004.9 |
| 20260506181526 | 90 | 68 | 3.5 | 9.6 | 0.00 | 0.00 | 0.00 | 58 | 1004.9 |
| 20260506181015 | 89 | 45 | 3.5 | 9.6 | 0.00 | 0.00 | 0.00 | 60 | 1005.3 |
| 20260506180505 | 89 | 90 | 3.5 | 11.3 | 0.00 | 0.00 | 0.00 | 59 | 1005.0 |
| 20260506175445 | 90 | 45 | 5.2 | 9.6 | 0.00 | 0.00 | 0.00 | 57 | 1005.2 |
| 20260506174935 | 91 | 113 | 1.7 | 9.6 | 0.00 | 0.00 | 0.00 | 56 | 1005.0 |
| 20260506174424 | 91 | 68 | 3.5 | 9.6 | 0.00 | 0.00 | 0.00 | 58 | 1005.3 |
| 20260506173406 | 91 | 68 | 1.7 | 11.3 | 0.00 | 0.00 | 0.00 | 58 | 1005.6 |
| 20260506172854 | 90 | 158 | 3.5 | 11.3 | 0.00 | 0.00 | 0.00 | 57 | 1005.7 |
| 20260506172344 | 90 | 68 | 5.2 | 9.6 | 0.00 | 0.00 | 0.00 | 58 | 1005.9 |
| 20260506171834 | 89 | 90 | 3.5 | 9.6 | 0.00 | 0.00 | 0.00 | 60 | 1005.7 |
| 20260506171324 | 89 | 45 | 3.5 | 9.6 | 0.00 | 0.00 | 0.00 | 61 | 1005.9 |
| 20260506170813 | 89 | 113 | 3.5 | 9.6 | 0.00 | 0.00 | 0.00 | 61 | 1005.9 |
| 20260506165754 | 89 | 90 | 3.5 | 11.3 | 0.00 | 0.00 | 0.00 | 64 | 1006.3 |
| 20260506165243 | 88 | 90 | 1.7 | 11.3 | 0.00 | 0.00 | 0.00 | 64 | 1006.4 |
| 20260506164733 | 88 | 113 | 1.7 | 12.2 | 0.00 | 0.00 | 0.00 | 64 | 1006.5 |
| 20260506164223 | 88 | 90 | 5.2 | 12.2 | 0.00 | 0.00 | 0.00 | 62 | 1006.7 |
| 20260506163713 | 89 | 135 | 2.6 | 7.8 | 0.00 | 0.00 | 0.00 | 63 | 1006.6 |
| 20260506163203 | 88 | 113 | 2.6 | 7.8 | 0.00 | 0.00 | 0.00 | 64 | 1007.0 |
| 20260506162653 | 87 | 113 | 2.6 | 7.0 | 0.00 | 0.00 | 0.00 | 65 | 1007.0 |
| 20260506162143 | 87 | 113 | 3.5 | 7.8 | 0.00 | 0.00 | 0.00 | 65 | 1007.0 |
| 20260506161632 | 86 | 90 | 3.5 | 9.6 | 0.00 | 0.00 | 0.00 | 65 | 1006.8 |
| 20260506161123 | 87 | 113 | 3.5 | 9.6 | 0.00 | 0.00 | 0.00 | 64 | 1007.3 |
| 20260506160612 | 87 | 113 | 3.5 | 9.6 | 0.00 | 0.00 | 0.00 | 64 | 1007.3 |
| 20260506155042 | 87 | 158 | 3.5 | 9.6 | 0.00 | 0.00 | 0.00 | 66 | 1007.8 |
| 20260506154531 | 87 | 158 | 3.5 | 7.8 | 0.00 | 0.00 | 0.00 | 66 | 1007.8 |
| 20260506154021 | 87 | 113 | 1.7 | 7.8 | 0.00 | 0.00 | 0.00 | 67 | 1007.9 |
| 20260506153512 | 86 | 135 | 4.3 | 7.8 | 0.00 | 0.00 | 0.00 | 66 | 1008.1 |
| 20260506153002 | 87 | 90 | 2.6 | 7.8 | 0.00 | 0.00 | 0.00 | 66 | 1008.1 |
| 20260506152451 | 87 | 68 | 3.5 | 7.8 | 0.00 | 0.00 | 0.00 | 65 | 1008.1 |
| 20260506151941 | 86 | 90 | 2.6 | 9.6 | 0.00 | 0.00 | 0.00 | 66 | 1007.9 |
| 20260506151431 | 86 | 113 | 7.0 | 9.6 | 0.00 | 0.00 | 0.00 | 66 | 1008.3 |
| 20260506150923 | 87 | 113 | 3.5 | 7.8 | 0.00 | 0.00 | 0.00 | 66 | 1008.6 |
| 20260506150411 | 87 | 135 | 3.5 | 7.8 | 0.00 | 0.00 | 0.00 | 65 | 1008.7 |